Flag for Germany Weather past 2 weeks in Homberg (Efze), Hesse, Germany

Now
66 °F

Passing clouds.


Feels Like: 66 °F
Forecast: 56 / 68 °F
Wind: 2 mph from Northwest

Location: Fritzlar

Current Time: Sep 1, 2015 at 12:29:46 AM

Latest Report: Aug 31, 2015 at 11:00 PM


Visibility: 19 mi

Pressure: 29.79 "Hg

Humidity: 85%

Dew point: 62 °F

Location of Homberg (Efze)Location

Historic Weather in Homberg (Efze) — Graph

°F

Homberg (Efze) temperature yesterday

Maximum temperature yesterday: 88 °F (at 4:00 PM)
Minimum temperature yesterday: 61 °F (at 4:00 AM)
Average temperature yesterday: 73 °F

Past Weeks' High & Low Weather Summary

 TemperatureHumidityPressure
High89 °F (Aug 30, 5:00 PM)99% (Aug 19, 8:00 AM)30.32 "Hg (Aug 19, 8:00 AM)
Low50 °F (Aug 21, 5:00 AM)29% (Aug 22, 4:00 PM)29.64 "Hg (Aug 24, 3:00 PM)
Average64 °F74%30.00 "Hg
* Reported Aug 16 11:00 PM — Aug 31 11:00 PM, Homberg (Efze), Weather by CustomWeather, © 2015

Note: Actual official high and low records may vary slightly from our data, if they occured in-between our weather recording intervals... More about our weather records

Advertising

Homberg (Efze) weather history for previous 24 hours

 ConditionsComfort  
Time TempWeatherWind HumidityBarometerVisibility
11:00 PM
Mon, Aug 31
66 °FPassing clouds.2 mph85%29.79 "Hg19 mi
10:00 PM71 °FPassing clouds.1 mph67%29.78 "Hg22 mi
9:00 PM71 °FPassing clouds.1 mph71%29.78 "Hg22 mi
8:00 PM79 °FPassing clouds.2 mph56%29.77 "Hg22 mi
7:00 PM85 °FScattered clouds.6 mph39%29.77 "Hg22 mi
6:00 PM87 °FScattered clouds.8 mph35%29.78 "Hg22 mi
5:00 PM88 °FScattered clouds.7 mph36%29.78 "Hg22 mi
4:00 PM88 °FScattered clouds.7 mph40%29.80 "Hg22 mi
3:00 PM88 °FScattered clouds.6 mph39%29.82 "Hg22 mi
2:00 PM87 °FPartly sunny.6 mph40%29.84 "Hg19 mi
1:00 PM85 °FPartly sunny.7 mph52%29.86 "Hg19 mi
11:00 AM75 °FPartly sunny.3 mph75%29.92 "Hg16 mi
10:00 AM70 °FScattered clouds.2 mph86%29.93 "Hg7 mi
9:00 AM68 °FFog.N/A90%29.94 "Hg1 mi
8:00 AM62 °FFog.1 mph98%29.96 "Hg0 mi
7:00 AM62 °FFog.1 mph98%29.97 "Hg1 mi
6:00 AM63 °FFog.3 mph97%29.98 "Hg1 mi
5:00 AM61 °FFog.1 mph98%29.98 "Hg1 mi
4:00 AM61 °FFog.1 mph97%29.98 "Hg1 mi
3:00 AM65 °FFog.2 mph95%29.99 "Hg6 mi
2:00 AM64 °FFog.1 mph95%30.00 "Hg6 mi
1:00 AM68 °FFog.2 mph90%30.00 "Hg7 mi
12:00 AM68 °FFog.1 mph94%29.99 "Hg9 mi
Weather by CustomWeather, © 2015

See weather overviewHow to use our weather pages